Regional Weather Roundup
Issued by NWS

Home | Current Version | Previous Version | Text Only | Print | Product List | Glossary On
Versions: 1 2 3 4 5 6 7 8 9 10 11 12 13 14 15 16 17 18 19 20 21 22 23 24 25 26 27 28 29 30 31 32 33 34 35 36 37 38 39 40 41 42 43 44 45 46 47 48 49 50
412
ASUS46 KPQR 240210
RWROR

OREGON REGIONAL WEATHER ROUNDUP
NATIONAL WEATHER SERVICE PORTLAND OR
700 PM PDT TUE AUG 23 2016

NOTE: "FAIR" INDICATES FEW OR NO CLOUDS BELOW 12,000 FEET WITH
NO SIGNIFICANT WEATHER AND/OR OBSTRUCTIONS TO VISIBILITY.

ORZ001>013-240300-
NORTHWEST OREGON


CITY           SKY/WX    TMP DP  RH WIND       PRES   REMARKS
ASTORIA        SUNNY     69  53  56 NW12      30.15S
NEWPORT        SUNNY     55  52  88 N12       30.17S
PORTLAND       MOSUNNY   82  46  28 NW9       30.08S
VANCOUVER WA   SUNNY     82  46  28 NW8G17    30.08S
SCAPPOOSE      SUNNY     82  46  28 NW8       30.08S
HILLSBORO      SUNNY     82  47  29 N8        30.08S
AURORA         SUNNY     82  44  26 NE8       30.09S
MCMINNVILLE    SUNNY     84  45  25 N8G18     30.08F
SALEM          SUNNY     83  44  25 NE8       30.07F
CORVALLIS        N/A     79  52  38 NW12      30.10S
EUGENE         SUNNY     81  43  26 N13       30.08S
$$

ORZ021-028-240300-
SOUTHWEST OREGON


CITY           SKY/WX    TMP DP  RH WIND       PRES   REMARKS
NORTH BEND     CLOUDY    54  52  94 N18       30.14S
BROOKINGS      LGT RAIN  52  51  97 SE5       30.08F VSB 1/4
ROSEBURG       SUNNY     85  39  19 N12       30.05R
SEXTON SUMMIT  SUNNY     69  25  19 N10       30.17S
MEDFORD        CLEAR     91  32  12 W7        30.01S
$$

ORZ014>016-041-240300-
COLUMBIA GORGE


CITY           SKY/WX    TMP DP  RH WIND       PRES   REMARKS
TROUTDALE      CLEAR     83  47  28 VRB3      30.07S
THE DALLES     CLEAR     87  34  15 CALM      30.03S
$$

ORZ029>031-041-044-049-050-061>064-502-503-505>511-240300-
EASTERN OREGON


CITY           SKY/WX    TMP DP  RH WIND       PRES   REMARKS
REDMOND        CLEAR     78  28  16 N12       30.13S
BEND             N/A    N/A N/A N/A MISG        N/A
PRINEVILLE     CLEAR     77  28  16 N10       30.14S
KLAMATH FALLS  CLEAR     80  25  13 NW12      30.14R
LAKEVIEW       CLEAR     75  25  15 N10       30.17R
HERMISTON      CLEAR     82  44  26 E6        30.06F
PENDLETON      CLEAR     77  36  22 N6        30.10S
JOHN DAY       CLEAR     76  32  20 NW10      30.14S
MEACHAM        CLEAR     66  33  29 VRB3      30.20S
LA GRANDE      CLEAR     73  34  23 NW17      30.12R
BAKER CITY     CLEAR     70  35  27 NW15      30.13R
BURNS          CLEAR     76  24  14 N9        30.14R
ROME             N/A     81   1   4 NW15G22   30.09S
ONTARIO        PTCLDY    77  40  26 S3        30.04S
$$




USA.gov is the U.S. government's official web portal to all federal, state and local government web resources and services.